When you browse on this site, cookies collect data to enhance your experience and personalize the content and advertising you see.
Visit our Privacy Policy to learn more. By continuing to use the site, you agree to this use of cookies and data.

Tiempo cada hora Birmingham

Hoy, 16 Agosto, Domingo

Tiempo Temperatura Precipitaciones Viento Presión Humedad
00:00 +17°C° 0 mm 4 mps 747 mmHg 88%
01:00 +17°C° 0.1 mm 4 mps 747 mmHg 89%
02:00 +17°C° 0.1 mm 4 mps 747 mmHg 89%
03:00 +17°C° 0.1 mm 4 mps 746 mmHg 89%
04:00 +17°C° 0.2 mm 4 mps 746 mmHg 90%
05:00 +17°C° 0.2 mm 4 mps 746 mmHg 91%
06:00 +17°C° 0.2 mm 4 mps 746 mmHg 92%
07:00 +17°C° 0.2 mm 4 mps 746 mmHg 92%
08:00 +17°C° 0.2 mm 4 mps 746 mmHg 92%
09:00 +17°C° 0.2 mm 4 mps 746 mmHg 92%
10:00 +18°C° 0.1 mm 4 mps 745 mmHg 89%
11:00 +19°C° 0.1 mm 4 mps 745 mmHg 86%
12:00 +20°C° 0.1 mm 4 mps 745 mmHg 83%
13:00 +21°C° 1 mm 4 mps 745 mmHg 81%
14:00 +21°C° 1 mm 4 mps 744 mmHg 78%
15:00 +22°C° 1 mm 4 mps 744 mmHg 76%
16:00 +21°C° 4.6 mm 4 mps 743 mmHg 81%
17:00 +19°C° 4.6 mm 4 mps 743 mmHg 87%
18:00 +18°C° 4.6 mm 4 mps 743 mmHg 92%
19:00 +18°C° 1.4 mm 3 mps 743 mmHg 92%
20:00 +18°C° 1.4 mm 3 mps 743 mmHg 93%
21:00 +17°C° 1.4 mm 3 mps 743 mmHg 94%
22:00 +17°C° 0 mm 3 mps 742 mmHg 94%
23:00 +17°C° 0 mm 2 mps 742 mmHg 94%

Mañana, 17 Agosto, Lunes

Tiempo Temperatura Precipitaciones Viento Presión Humedad
00:00 +17°C° 0 mm 2 mps 742 mmHg 95%
01:00 +17°C° 0 mm 2 mps 742 mmHg 95%
02:00 +18°C° 0 mm 1 mps 742 mmHg 95%
03:00 +18°C° 0 mm 1 mps 741 mmHg 94%
04:00 +18°C° 0.4 mm 1 mps 741 mmHg 95%
05:00 +18°C° 0.4 mm 1 mps 741 mmHg 95%
06:00 +18°C° 0.4 mm 1 mps 741 mmHg 95%
07:00 +19°C° 0.1 mm 1 mps 741 mmHg 90%
08:00 +20°C° 0.1 mm 1 mps 741 mmHg 84%
09:00 +21°C° 0.1 mm 1 mps 741 mmHg 78%
10:00 +22°C° 0.4 mm 1 mps 741 mmHg 74%
11:00 +22°C° 0.4 mm 1 mps 741 mmHg 70%
12:00 +23°C° 0.4 mm 1 mps 741 mmHg 66%
13:00 +24°C° 1.2 mm 2 mps 741 mmHg 64%
14:00 +24°C° 1.2 mm 2 mps 740 mmHg 63%
15:00 +24°C° 1.2 mm 2 mps 740 mmHg 62%
16:00 +23°C° 1.1 mm 2 mps 740 mmHg 67%
17:00 +21°C° 1.1 mm 3 mps 740 mmHg 72%
18:00 +20°C° 1.1 mm 3 mps 740 mmHg 77%
19:00 +19°C° 0.3 mm 3 mps 740 mmHg 80%
20:00 +18°C° 0.3 mm 3 mps 740 mmHg 83%
21:00 +18°C° 0.3 mm 4 mps 741 mmHg 86%
22:00 +17°C° 0 mm 4 mps 741 mmHg 87%
23:00 +17°C° 0 mm 4 mps 741 mmHg 88%

Pasado mañana, 18 Agosto, Martes

Tiempo Temperatura Precipitaciones Viento Presión Humedad
00:00 +17°C° 0 mm 4 mps 741 mmHg 89%
01:00 +17°C° 0.1 mm 4 mps 741 mmHg 90%
02:00 +15°C° 0.1 mm 4 mps 741 mmHg 91%
03:00 +16°C° 0.1 mm 3 mps 741 mmHg 92%
04:00 +15°C° 0 mm 4 mps 741 mmHg 92%
05:00 +15°C° 0 mm 4 mps 741 mmHg 91%
06:00 +15°C° 0 mm 4 mps 741 mmHg 90%
07:00 +17°C° 0 mm 4 mps 742 mmHg 86%
08:00 +18°C° 0 mm 4 mps 742 mmHg 81%
09:00 +19°C° 0 mm 4 mps 742 mmHg 77%
10:00 +20°C° 0.3 mm 4 mps 742 mmHg 73%
11:00 +21°C° 0.3 mm 5 mps 742 mmHg 70%
12:00 +22°C° 0.3 mm 5 mps 742 mmHg 66%
13:00 +22°C° 0.5 mm 5 mps 742 mmHg 66%
14:00 +22°C° 0.5 mm 5 mps 743 mmHg 66%
15:00 +22°C° 0.5 mm 5 mps 743 mmHg 66%
16:00 +22°C° 0.1 mm 5 mps 743 mmHg 67%
17:00 +21°C° 0.1 mm 4 mps 743 mmHg 69%
18:00 +20°C° 0.1 mm 3 mps 743 mmHg 71%
19:00 +19°C° 0 mm 3 mps 743 mmHg 74%
20:00 +18°C° 0 mm 3 mps 744 mmHg 78%
21:00 +17°C° 0 mm 2 mps 744 mmHg 81%
22:00 +16°C° 0 mm 2 mps 744 mmHg 83%
23:00 +16°C° 0 mm 2 mps 744 mmHg 85%

19 Agosto, Miércoles

Tiempo Temperatura Precipitaciones Viento Presión Humedad
00:00 +15°C° 0 mm 2 mps 744 mmHg 88%
01:00 +15°C° 0 mm 2 mps 744 mmHg 89%
02:00 +14°C° 0 mm 2 mps 744 mmHg 90%
03:00 +14°C° 0 mm 2 mps 744 mmHg 91%
04:00 +14°C° 0 mm 2 mps 744 mmHg 91%
05:00 +14°C° 0 mm 1 mps 744 mmHg 90%
06:00 +14°C° 0 mm 1 mps 744 mmHg 89%
07:00 +16°C° 0 mm 1 mps 744 mmHg 83%
08:00 +18°C° 0 mm 2 mps 744 mmHg 77%
09:00 +19°C° 0 mm 2 mps 744 mmHg 70%
10:00 +20°C° 0 mm 3 mps 743 mmHg 67%
11:00 +21°C° 0 mm 3 mps 743 mmHg 64%
12:00 +22°C° 0 mm 4 mps 743 mmHg 61%
13:00 +23°C° 0.1 mm 4 mps 742 mmHg 61%
14:00 +23°C° 0.1 mm 5 mps 742 mmHg 61%
15:00 +23°C° 0.1 mm 5 mps 741 mmHg 60%
16:00 +22°C° 0.2 mm 5 mps 740 mmHg 66%
17:00 +20°C° 0.2 mm 5 mps 740 mmHg 72%
18:00 +17°C° 0.2 mm 6 mps 739 mmHg 78%
19:00 +17°C° 0.5 mm 6 mps 738 mmHg 81%
20:00 +17°C° 0.5 mm 6 mps 738 mmHg 85%
21:00 +16°C° 0.5 mm 6 mps 737 mmHg 88%
22:00 +16°C° 0.3 mm 6 mps 736 mmHg 89%
23:00 +16°C° 0.3 mm 6 mps 735 mmHg 91%

20 Agosto, Jueves

Tiempo Temperatura Precipitaciones Viento Presión Humedad
00:00 +17°C° 0.3 mm 7 mps 735 mmHg 92%
01:00 +17°C° 1.9 mm 7 mps 734 mmHg 93%
02:00 +17°C° 1.9 mm 7 mps 733 mmHg 94%
03:00 +18°C° 1.9 mm 7 mps 732 mmHg 94%
04:00 +18°C° 0.6 mm 7 mps 732 mmHg 92%
05:00 +18°C° 0.6 mm 7 mps 732 mmHg 90%
06:00 +18°C° 0.6 mm 7 mps 732 mmHg 88%
07:00 +20°C° 0.1 mm 7 mps 732 mmHg 82%
08:00 +20°C° 0.1 mm 7 mps 733 mmHg 75%
09:00 +20°C° 0.1 mm 8 mps 733 mmHg 69%
10:00 +20°C° 0 mm 8 mps 734 mmHg 66%
11:00 +21°C° 0 mm 8 mps 734 mmHg 62%
12:00 +21°C° 0 mm 9 mps 735 mmHg 59%
13:00 +21°C° 0.2 mm 9 mps 735 mmHg 59%
14:00 +21°C° 0.2 mm 9 mps 735 mmHg 60%
15:00 +21°C° 0.2 mm 9 mps 735 mmHg 60%
16:00 +20°C° 0 mm 8 mps 736 mmHg 62%
17:00 +18°C° 0 mm 7 mps 736 mmHg 63%
18:00 +17°C° 0 mm 6 mps 736 mmHg 64%
19:00 +16°C° 0 mm 6 mps 736 mmHg 67%
20:00 +16°C° 0 mm 7 mps 736 mmHg 70%
21:00 +15°C° 0 mm 8 mps 736 mmHg 72%
22:00 +15°C° 0 mm 8 mps 736 mmHg 73%
23:00 +16°C° 0 mm 8 mps 736 mmHg 74%

21 Agosto, Viernes

Tiempo Temperatura Precipitaciones Viento Presión Humedad
00:00 +16°C° 0 mm 9 mps 737 mmHg 75%
01:00 +16°C° 0 mm 9 mps 736 mmHg 75%
02:00 +16°C° 0 mm 9 mps 736 mmHg 75%
03:00 +16°C° 0 mm 9 mps 736 mmHg 75%
04:00 +16°C° 0 mm 9 mps 736 mmHg 75%
05:00 +16°C° 0 mm 9 mps 736 mmHg 75%
06:00 +17°C° 0 mm 9 mps 736 mmHg 75%
07:00 +17°C° 0 mm 9 mps 736 mmHg 74%
08:00 +18°C° 0 mm 9 mps 736 mmHg 73%
09:00 +18°C° 0 mm 10 mps 737 mmHg 72%
10:00 +19°C° 0.2 mm 10 mps 737 mmHg 68%
11:00 +21°C° 0.2 mm 10 mps 737 mmHg 65%
12:00 +22°C° 0.2 mm 10 mps 737 mmHg 62%
13:00 +22°C° 0.1 mm 10 mps 737 mmHg 59%
14:00 +22°C° 0.1 mm 10 mps 736 mmHg 56%
15:00 +22°C° 0.1 mm 10 mps 736 mmHg 54%
16:00 +19°C° 0.8 mm 9 mps 736 mmHg 62%
17:00 +17°C° 0.8 mm 8 mps 736 mmHg 70%
18:00 +15°C° 0.8 mm 7 mps 735 mmHg 78%
19:00 +15°C° 0.4 mm 6 mps 736 mmHg 82%
20:00 +14°C° 0.4 mm 6 mps 736 mmHg 85%
21:00 +14°C° 0.4 mm 5 mps 736 mmHg 88%
22:00 +14°C° 0 mm 6 mps 737 mmHg 88%
23:00 +14°C° 0 mm 6 mps 737 mmHg 87%
Mostrar más